[Iaude] MPEC F13: 2024 FC [a=1.90,e=0.46,i=4.9,H=25.3]
    mpec at cfa.harvard.edu 
    mpec at cfa.harvard.edu
       
    Mon Mar 18 05:37:48 EDT 2024
    
    
  
M.P.E.C. 2024-F13                                Issued 2024 March 18, 09:36 UT
     The Minor Planet Electronic Circulars contain information on unusual
         minor planets, routine data on comets and natural satellites,
         and occasional editorial announcements.  They are published
    on behalf of Division F of the International Astronomical Union by the
          Minor Planet Center, Smithsonian Astrophysical Observatory,
                          Cambridge, MA 02138, U.S.A.
			  
             Prepared using the Tamkin Foundation Computer Network
                              MPC at CFA.HARVARD.EDU
            URL https://www.minorplanetcenter.net/    ISSN 1523-6714
                                    2024 FC                                     
Observations:
     K24F00C* C2024 03 16.55646314 05 59.359-15 07 31.68         21.90wXEF013F51
     K24F00C  C2024 03 16.56781514 06 00.911-15 06 55.69         21.96wXEF013F51
     K24F00C  C2024 03 17.22841614 07 55.93 -14 31 27.5                WEF013X09
     K24F00C  C2024 03 17.24235914 07 57.75 -14 30 46.2                WEF013X09
     K24F00C  C2024 03 17.25630214 07 59.64 -14 30 03.0                WEF013X09
     K24F00C  C2024 03 17.54052614 08 43.686-14 17 01.45         21.47GVEF013F51
     K24F00C  C2024 03 17.54134014 08 43.780-14 16 59.14         21.53GVEF013F51
     K24F00C |C2024 03 18.35190014 10 45.370-13 36 02.30         21.6 GVEF013807
     K24F00C |C2024 03 18.36290014 10 46.650-13 35 30.20         21.8 GVEF013807
     K24F00C |C2024 03 18.37391014 10 47.940-13 34 58.10         21.8 GVEF013807
Observer details:
807 Cerro Tololo Observatory, La Serena.  Observers T. Linder, R. Holmes.
    0.61-m f/6.8 Ritchey-Chretien + CCD.
F51 Pan-STARRS 1, Haleakala.  Observers J. Herman, T. Lowe, P. Minguez, A.
    Schultz, I. Smith.  Measurers K. Chambers, T. de Boer, J. Fairlamb, H.
    Gao, M. Huber, C.-C. Lin, E. Magnier, Y. Ramanjooloo, R. Wainscoat, R.
    Weryk.  1.8-m Ritchey-Chretien + CCD.
X09 Deep Random Survey, Rio Hurtado.  Observers A. Schnabel, D. Ruhela.
    Measurer S. Deen.  0.43-m reflector + CMOS.
Orbital elements:
2024 FC                                                  Earth MOID = 0.0493 AU
Epoch 2024 Mar. 31.0 TT = JDT 2460400.5                 MPC                     
M  16.14129              (2000.0)            P               Q                  
n   0.37724065     Peri.  325.98593     -0.84409696     -0.53618535             
a   1.8969551      Node   181.59540     +0.50891616     -0.79976318             
e   0.4618671      Incl.    4.87449     +0.16883326     -0.26997059             
P   2.61           H   25.38          G   0.15           U   8                  
Residuals in seconds of arc
240316 F51  0.1+  0.1+    240317 X09  0.1+  0.9+    240318 807  0.0   0.0
240316 F51  0.0   0.0     240317 F51  0.0   0.1+    240318 807  0.2+  0.0
240317 X09  0.5-  0.1+    240317 F51  0.0   0.1-
240317 X09  0.8-  0.4-    240318 807  0.1-  0.0
Ephemeris:
2024 FC                  a,e,i = 1.90, 0.46, 5                   q = 1.0208
Date    TT    R. A. (2000) Decl.     Delta      r    Elong.  Phase     V
2024 02 17    08 25 27.1 -40 25 58   0.05815 1.0208   123.0    54.3    21.2
...
2024 03 03    12 42 22.5 -31 39 17   0.06161 1.0350   133.8    43.7    21.1
...
2024 03 11    13 44 22.2 -20 44 49   0.07955 1.0539   138.0    39.1    21.6
...
2024 03 17    14 07 15.8 -14 43 37   0.09685 1.0728   141.8    35.0    21.9
2024 03 18    14 09 54.8 -13 53 31   0.09996 1.0763   142.5    34.2    22.0
2024 03 19    14 12 18.3 -13 05 57   0.1031  1.0799   143.2    33.5    22.0
...
2024 03 25    14 22 19.5 -09 06 36   0.1233  1.1036   147.9    28.7    22.3
...
2024 04 02    14 27 45.4 -05 21 37   0.1532  1.1398   154.6    22.1    22.7
...
2024 04 17    14 26 11.9 -01 31 24   0.2211  1.2192   165.6    11.8    23.3
A. U. Tomatic                (C) Copyright 2024 MPC           M.P.E.C. 2024-F13
    
    
More information about the Iaude
mailing list